Date String (YYYY-MM-DD hh:mm:ss) UTC,Instrument flags,absolute air pressure of the measurement (hPa),sample flow rate (lpm),inlet stack bypass flow (lpm),air temperature of the measurement (°C),ambient temperature measured by the external sensor (°C),aerosol sample conditioner tube jacket temperature (°C),OPC LED temperature (°C),internal box temperature (°C),relative humidity of the measurement (%),span deviation,mass concentration of particles derived from Lorenz-Mie calculation of OPC scattering (μg/m³),mass concentration of particles derived from Lorenz-Mie calculation of OPC scattering (μg/m³),mass concentration of particles derived from Lorenz-Mie calculation of OPC scattering (μg/m³)
DateTimeUTC,F1_M11,P_M11,Q1_M11,Q2_M11,T1_M11,T2_M11,T3_M11,T4_M11,T5_M11,U1_M11,ZSPAN_M11,X0_M11,X2_M11,X1_M11
2024-05-23 15:00:00,SystemResetWarning,0819.5,5.01,000.00,028.2,027.5,000.0,036.4,029.9,017.0,0000.0,0015.22,0003.97,0002.71
2024-05-23 15:01:00,SystemResetWarning,0819.5,5.00,000.00,028.2,027.5,000.0,036.5,029.9,016.7,0000.0,0015.19,0003.97,0002.71
2024-05-23 15:02:00,SystemResetWarning,0819.4,5.00,000.00,028.2,027.5,000.0,036.5,029.9,016.9,0000.0,0016.41,0003.94,0002.71
2024-05-23 15:03:00,SystemResetWarning,0819.4,5.00,000.00,028.3,027.5,000.0,036.5,030.0,016.8,0000.0,0016.41,0003.97,0002.71
2024-05-23 15:04:00,SystemResetWarning,0819.4,4.99,000.00,028.3,027.6,000.0,036.5,030.0,017.1,0000.0,0016.43,0003.93,0002.74
2024-05-23 15:05:00,SystemResetWarning,0819.4,5.00,000.00,028.3,027.6,000.0,036.5,030.0,017.3,0000.0,0015.52,0003.94,0002.76
2024-05-23 15:06:00,SystemResetWarning,0819.4,5.00,000.00,028.3,027.6,000.0,036.5,030.0,017.5,0000.0,0014.91,0003.90,0002.76
2024-05-23 15:07:00,SystemResetWarning,0819.4,5.00,000.00,028.3,027.6,000.0,036.5,030.0,017.5,0000.0,0015.62,0003.89,0002.75
2024-05-23 15:08:00,SystemResetWarning,0819.4,5.01,000.00,028.3,027.6,000.0,036.5,030.0,017.3,0000.0,0016.21,0003.89,0002.77
2024-05-23 15:09:00,SystemResetWarning,0819.5,5.01,000.00,028.3,027.6,000.0,036.5,030.0,017.4,0000.0,0016.69,0003.86,0002.77
2024-05-23 15:10:00,SystemResetWarning,0819.4,5.00,000.00,028.3,027.6,000.0,036.5,030.1,017.5,0000.0,0017.02,0003.84,0002.78
2024-05-23 15:11:00,SystemResetWarning,0819.3,5.00,000.00,028.4,027.6,000.0,036.6,030.1,016.8,0000.0,0016.45,0003.90,0002.80
2024-05-23 15:12:00,SystemResetWarning,0819.4,4.99,000.00,028.4,027.7,000.0,036.6,030.1,017.1,0000.0,0016.59,0003.90,0002.80
2024-05-23 15:13:00,SystemResetWarning,0819.3,4.99,000.00,028.4,027.7,000.0,036.6,030.1,016.7,0000.0,0017.04,0003.87,0002.79
2024-05-23 15:14:00,SystemResetWarning,0819.3,5.01,000.00,028.4,027.7,000.0,036.6,030.1,016.5,0000.0,0017.82,0003.83,0002.78
2024-05-23 15:15:00,SystemResetWarning,0819.3,5.01,000.00,028.4,027.7,000.0,036.6,030.1,017.0,0000.0,0017.06,0003.84,0002.75
2024-05-23 15:16:00,SystemResetWarning,0819.4,5.00,000.00,028.4,027.7,000.0,036.6,030.1,017.3,0000.0,0017.10,0003.86,0002.75
2024-05-23 15:17:00,SystemResetWarning,0819.5,5.00,000.00,028.4,027.7,000.0,036.6,030.1,016.9,0000.0,0017.50,0003.92,0002.74
2024-05-23 15:18:00,SystemResetWarning,0819.3,5.00,000.00,028.4,027.7,000.0,036.6,030.1,016.8,0000.0,0017.50,0003.95,0002.76
2024-05-23 15:19:00,SystemResetWarning,0819.4,5.00,000.00,028.5,027.8,000.0,036.7,030.2,016.9,0000.0,0016.81,0003.95,0002.74
2024-05-23 15:20:00,SystemResetWarning,0819.5,5.00,000.00,028.5,027.8,000.0,036.7,030.2,017.1,0000.0,0017.24,0003.97,0002.74
2024-05-23 15:21:00,SystemResetWarning,0819.5,5.00,000.00,028.5,027.8,000.0,036.7,030.2,017.7,0000.0,0017.91,0004.00,0002.73
2024-05-23 15:22:00,SystemResetWarning,0819.5,5.00,000.00,028.5,027.8,000.0,036.7,030.2,016.9,0000.0,0019.60,0003.99,0002.73
2024-05-23 15:23:00,SystemResetWarning,0819.5,5.00,000.00,028.5,027.8,000.0,036.7,030.2,017.6,0000.0,0020.56,0003.97,0002.73
2024-05-23 15:24:00,SystemResetWarning,0819.5,5.00,000.00,028.5,027.8,000.0,036.7,030.2,017.9,0000.0,0020.65,0004.04,0002.75
2024-05-23 15:25:00,SystemResetWarning,0819.4,5.00,000.00,028.5,027.8,000.0,036.7,030.2,017.4,0000.0,0019.55,0004.07,0002.78
2024-05-23 15:26:00,SystemResetWarning,0819.4,5.00,000.00,028.5,027.8,000.0,036.8,030.3,016.7,0000.0,0020.07,0004.06,0002.79
2024-05-23 15:27:00,SystemResetWarning,0819.4,5.00,000.00,028.6,027.9,000.0,036.8,030.3,017.1,0000.0,0020.51,0004.02,0002.79
2024-05-23 15:28:00,SystemResetWarning,0819.3,5.00,000.00,028.6,027.9,000.0,036.8,030.3,015.3,0000.0,0020.73,0003.97,0002.79
2024-05-23 15:29:00,SystemResetWarning,0819.3,5.00,000.00,028.6,027.9,000.0,036.8,030.3,015.7,0000.0,0020.33,0003.98,0002.76
2024-05-23 15:30:00,SystemResetWarning,0819.3,5.00,000.00,028.6,027.9,000.0,036.8,030.3,015.1,0000.0,0020.70,0003.97,0002.77
2024-05-23 15:31:00,SystemResetWarning,0819.3,5.00,000.00,028.6,027.9,000.0,036.8,030.3,016.2,0000.0,0021.17,0003.99,0002.78
2024-05-23 15:32:00,SystemResetWarning,0819.4,5.00,000.00,028.6,027.9,000.0,036.8,030.3,015.7,0000.0,0019.40,0003.98,0002.78
2024-05-23 15:33:00,SystemResetWarning,0819.4,5.01,000.00,028.6,027.9,000.0,036.8,030.3,014.6,0000.0,0017.51,0003.96,0002.78
2024-05-23 15:34:00,SystemResetWarning,0819.5,5.01,000.00,028.7,028.0,000.0,036.8,030.4,015.2,0000.0,0016.86,0003.95,0002.77
2024-05-23 15:35:00,SystemResetWarning,0819.5,4.99,000.00,028.7,028.0,000.0,036.9,030.4,016.6,0000.0,0016.16,0003.93,0002.77
2024-05-23 15:36:00,SystemResetWarning,0819.3,5.00,000.00,028.7,028.0,000.0,036.9,030.4,016.5,0000.0,0016.39,0003.95,0002.78
2024-05-23 15:37:00,SystemResetWarning,0819.4,4.99,000.00,028.7,028.0,000.0,036.9,030.4,017.6,0000.0,0016.25,0003.94,0002.77
2024-05-23 15:38:00,SystemResetWarning,0819.5,5.00,000.00,028.7,028.0,000.0,036.9,030.4,016.4,0000.0,0015.82,0003.93,0002.76
2024-05-23 15:39:00,SystemResetWarning,0819.4,5.00,000.00,028.7,028.0,000.0,036.9,030.4,015.7,0000.0,0015.10,0003.95,0002.77
2024-05-23 15:40:00,SystemResetWarning,0819.4,5.01,000.00,028.7,028.0,000.0,036.9,030.4,016.6,0000.0,0015.25,0003.97,0002.81
2024-05-23 15:41:00,SystemResetWarning,0819.4,5.01,000.00,028.7,028.0,000.0,036.9,030.4,016.4,0000.0,0014.71,0004.01,0002.81
2024-05-23 15:42:00,SystemResetWarning,0819.4,5.00,000.00,028.8,028.1,000.0,036.9,030.4,016.1,0000.0,0013.86,0003.96,0002.80
2024-05-23 15:43:00,SystemResetWarning,0819.4,5.00,000.00,028.8,028.1,000.0,037.0,030.5,015.7,0000.0,0014.58,0004.00,0002.81
2024-05-23 15:44:00,SystemResetWarning,0819.4,5.00,000.00,028.8,028.1,000.0,037.0,030.5,016.7,0000.0,0016.13,0004.02,0002.80
2024-05-23 15:45:00,SystemResetWarning,0819.4,4.99,000.00,028.8,028.1,000.0,037.0,030.5,016.6,0000.0,0016.07,0004.06,0002.80
2024-05-23 15:46:00,SystemResetWarning,0819.5,5.00,000.00,028.8,028.1,000.0,037.0,030.5,016.7,0000.0,0016.46,0004.10,0002.81
2024-05-23 15:47:00,SystemResetWarning,0819.3,5.02,000.00,028.8,028.1,000.0,037.0,030.5,016.5,0000.0,0016.79,0004.12,0002.81
2024-05-23 15:48:00,SystemResetWarning,0819.3,5.00,000.00,028.8,028.1,000.0,037.0,030.5,016.5,0000.0,0017.28,0004.18,0002.84
2024-05-23 15:49:00,SystemResetWarning,0819.3,4.98,000.00,028.8,028.1,000.0,037.0,030.5,017.2,0000.0,0017.33,0004.23,0002.87
2024-05-23 15:50:00,SystemResetWarning,0819.3,5.00,000.00,028.8,028.1,000.0,037.0,030.5,016.5,0000.0,0018.19,0004.27,0002.89
2024-05-23 15:51:00,SystemResetWarning,0819.3,5.01,000.00,028.9,028.1,000.0,037.1,030.5,016.2,0000.0,0017.83,0004.26,0002.89
2024-05-23 15:52:00,SystemResetWarning,0819.4,5.00,000.00,028.9,028.1,000.0,037.1,030.6,016.9,0000.0,0017.54,0004.25,0002.91
2024-05-23 15:53:00,SystemResetWarning,0819.4,4.99,000.00,028.9,028.2,000.0,037.1,030.6,017.2,0000.0,0017.37,0004.30,0002.92
2024-05-23 15:54:00,SystemResetWarning,0819.4,4.99,000.00,028.9,028.2,000.0,037.1,030.6,017.4,0000.0,0016.99,0004.25,0002.92
2024-05-23 15:55:00,SystemResetWarning,0819.3,4.99,000.00,028.9,028.2,000.0,037.1,030.6,017.4,0000.0,0016.36,0004.27,0002.96
2024-05-23 15:56:00,SystemResetWarning,0819.3,5.01,000.00,028.9,028.2,000.0,037.1,030.6,016.7,0000.0,0016.44,0004.29,0002.98
2024-05-23 15:57:00,SystemResetWarning,0819.2,5.01,000.00,028.9,028.2,000.0,037.1,030.6,017.0,0000.0,0017.13,0004.31,0002.99
2024-05-23 15:58:00,SystemResetWarning,0819.1,4.99,000.00,028.9,028.2,000.0,037.1,030.6,017.4,0000.0,0016.67,0004.29,0002.99
2024-05-23 15:59:00,SystemResetWarning,0819.1,4.99,000.00,028.9,028.2,000.0,037.2,030.6,017.9,0000.0,0016.13,0004.23,0002.98
